Date,TemperatureHighF,TemperatureAvgF,TemperatureLowF,DewpointHighF,DewpointAvgF,DewpointLowF,HumidityHigh,HumidityAvg,HumidityLow,PressureMaxIn,PressureMinIn,WindSpeedMaxMPH,WindSpeedAvgMPH,GustSpeedMaxMPH,PrecipitationSumIn
2013-1-1,-200,0,200,100,79,-100,67,49,16,30.00,29.94,4,1,8,1.04
2013-1-2,-200,0,200,100,90,-100,67,41,29,30.18,30.00,6,4,14,0.04
2013-1-3,43,19,27,100,49,-3,41,28,18,30.36,30.12,6,3,15,0.00
2013-1-4,46,34,26,11,1,-7,49,25,17,30.41,30.36,7,3,15,0.00
2013-1-5,50,37,26,11,0,-7,33,21,16,30.41,30.24,5,1,10,0.00
2013-1-6,49,40,34,27,13,-1,57,35,16,30.30,30.18,4,0,9,0.04
2013-1-7,54,38,29,14,4,-2,45,25,15,30.41,30.30,5,2,13,0.00
2013-1-8,60,43,29,22,9,-4,42,27,16,30.41,30.30,4,1,10,0.00
2013-1-9,55,50,45,36,27,20,59,42,36,30.41,30.30,4,1,8,0.04
2013-1-10,68,57,48,36,24,15,61,32,15,30.41,30.12,4,2,13,0.00
2013-1-11,66,64,62,52,36,21,63,37,21,30.18,30.06,4,1,14,0.12
2013-1-12,74,66,64,52,34,18,63,35,13,30.12,30.00,2,0,8,0.08
2013-1-13,71,66,61,46,26,18,57,24,14,30.06,29.94,3,2,10,0.00
2013-1-14,61,45,39,47,30,22,61,56,41,30.24,30.06,7,4,16,0.00
2013-1-15,44,42,40,33,30,27,66,63,58,30.18,30.00,4,2,11,0.00
2013-1-16,51,46,43,40,34,24,70,62,44,30.06,29.94,5,1,13,0.00
2013-1-17,47,40,34,32,20,2,62,45,24,30.36,29.71,13,6,26,0.00
2013-1-18,49,36,29,13,7,-2,48,31,16,30.53,30.36,5,3,11,0.00
2013-1-19,56,37,25,23,8,-1,62,34,15,30.41,30.24,5,1,13,0.00
2013-1-20,58,41,28,24,10,-1,56,31,15,30.24,30.12,5,0,10,0.00
2013-1-21,50,36,26,23,6,-4,62,32,16,30.24,30.12,7,2,15,0.00
2013-1-22,37,30,25,-1,-6,-9,22,20,19,30.36,30.24,7,5,17,0.00
2013-1-23,41,33,31,0,-4,-5,20,20,18,30.36,30.30,4,2,8,0.00
2013-1-25,39,35,33,19,12,-1,50,39,19,30.18,30.12,5,2,14,0.00
2013-1-26,50,38,30,23,10,-2,57,33,16,30.30,30.18,6,3,14,0.00
2013-1-27,54,41,30,12,7,0,44,26,15,30.41,30.30,4,2,10,0.00
2013-1-28,58,51,45,19,10,2,32,19,16,30.36,30.24,6,3,10,0.00
2013-1-29,71,58,41,41,24,17,60,32,14,30.24,29.88,4,1,10,0.00
2013-1-30,69,58,40,47,32,4,60,39,17,29.88,29.59,7,2,24,0.00
2013-1-31,49,40,34,5,0,-3,21,19,16,30.12,29.82,7,4,19,0.00
2013-2-12,50,24,0,26,16,4,49,33,16,30.00,29.82,5,1,9,0.00
2013-2-13,50,31,0,39,20,2,66,41,17,30.00,29.71,6,2,18,0.00
2013-2-14,57,40,0,14,7,0,40,22,15,30.12,30.00,4,1,9,0.00
2013-2-15,63,43,0,33,11,0,65,31,15,30.12,30.00,6,2,15,0.00
2013-2-16,40,34,22,0,-3,-10,27,20,18,30.18,30.00,8,4,22,0.00
2013-2-17,45,28,0,4,-2,-8,43,26,17,30.30,30.18,6,1,14,0.00
2013-2-18,63,42,0,16,4,-9,35,20,15,30.30,30.00,4,2,14,0.00
2013-2-19,57,45,0,22,10,-5,48,25,15,30.18,29.94,7,3,17,0.00
2013-2-20,45,36,26,3,-2,-8,24,19,17,30.24,30.18,7,3,15,0.00
2013-2-21,59,40,0,30,5,-7,58,23,15,30.24,29.94,5,3,13,0.00
2013-2-22,53,48,44,32,18,9,59,32,18,30.12,29.94,5,2,13,0.00
2013-2-23,54,45,0,39,26,17,67,47,23,30.00,29.82,3,0,8,0.00
2013-2-24,59,44,0,28,14,-1,64,34,15,30.06,29.94,7,2,14,0.00
2013-2-25,57,44,0,13,6,-2,39,21,15,30.00,29.76,4,1,15,0.00
2013-2-26,52,44,0,35,17,3,56,30,16,29.76,29.47,5,2,18,0.00
2013-2-27,58,43,0,17,6,0,38,19,15,29.88,29.76,6,2,18,0.00
2013-2-28,42,37,0,3,0,-3,19,19,18,30.00,29.88,6,2,13,0.00
2013-3-1,41,33,0,8,1,-3,33,21,18,30.00,29.94,4,1,12,0.00
2013-3-2,38,35,33,17,4,-4,50,29,19,30.06,29.94,6,2,13,0.00
2013-3-3,37,31,0,-1,-4,-9,27,20,19,30.12,30.06,7,4,18,0.00
2013-3-4,55,41,0,13,3,-7,41,22,15,30.18,30.00,4,1,10,0.00
2013-3-5,62,50,0,34,11,-1,46,20,16,30.00,29.65,9,2,20,0.00
2013-3-6,39,36,33,6,-2,-4,30,20,18,30.24,29.94,9,6,24,0.00
2013-3-7,48,39,34,5,0,-3,22,19,17,30.30,30.24,8,6,18,0.00
2013-3-8,54,46,40,8,3,0,18,17,15,30.30,30.24,6,3,13,0.00
2013-3-9,64,48,29,16,8,-4,37,20,15,30.30,30.18,4,1,10,0.00
2013-3-10,74,62,53,21,15,7,18,16,13,30.18,30.00,4,2,12,0.00
2013-3-11,64,56,0,40,22,13,58,30,16,30.00,29.76,4,2,14,0.00
2013-3-12,56,45,0,27,7,-1,47,22,15,30.12,29.88,7,4,17,0.00
2013-3-13,51,38,0,25,6,-3,60,28,16,30.30,30.12,7,3,18,0.00
2013-3-14,50,36,0,5,-1,-8,21,19,16,30.41,30.24,6,3,15,0.00
2013-3-15,75,52,0,24,14,2,57,25,13,30.24,29.94,6,1,15,0.00
2013-3-16,79,64,52,24,16,7,18,16,12,30.00,29.82,6,2,17,0.00
2013-3-17,73,62,51,21,16,10,26,17,14,30.00,29.88,3,1,13,0.00
2013-3-18,64,58,51,40,26,14,64,33,15,29.94,29.76,5,1,17,0.00
2013-3-19,63,52,42,39,14,1,65,26,15,30.12,29.88,8,4,23,0.00
2013-3-20,59,45,0,14,5,-3,20,17,15,30.12,29.94,8,3,25,0.00
2013-3-21,46,35,26,4,-2,-9,21,19,17,30.06,29.94,7,4,14,0.00
2013-3-22,48,29,0,5,0,-7,23,19,17,30.06,30.00,3,1,8,0.00
2013-3-23,54,37,0,30,17,2,54,32,18,30.00,29.76,4,2,9,0.00
2013-3-24,67,43,0,48,25,2,67,40,15,29.88,29.47,9,2,26,0.00
2013-3-25,43,37,32,2,-1,-4,20,19,18,30.06,29.71,7,4,22,0.00
2013-3-26,41,35,30,6,0,-6,32,22,18,30.30,30.06,7,3,18,0.00
2013-3-27,54,40,28,8,1,-6,32,20,15,30.36,30.24,7,3,15,0.00
2013-3-28,60,42,0,15,7,-1,43,25,15,30.36,30.24,7,2,15,0.00
2013-3-29,60,44,0,19,10,2,45,26,15,30.36,30.18,5,2,13,0.00
2013-3-30,69,52,0,34,21,10,46,30,15,30.24,30.00,6,1,22,0.00
2013-3-31,67,58,54,48,36,15,67,46,15,30.00,29.88,2,0,8,0.00
2013-4-1,70,55,0,45,26,7,69,37,14,30.06,29.88,6,2,17,0.00
2013-4-2,60,46,0,15,6,0,18,17,14,30.24,30.06,7,4,15,0.00
2013-4-3,59,49,0,14,8,2,19,17,15,30.24,30.12,6,4,14,0.00
2013-4-4,48,29,0,29,23,8,54,43,19,30.18,30.00,2,0,8,0.00
2013-4-5,65,50,0,29,18,5,59,31,15,30.12,30.00,9,3,20,0.00
2013-4-6,76,55,0,30,18,8,62,27,13,30.18,30.06,5,1,15,0.00
2013-4-7,77,64,52,23,16,7,18,16,13,30.18,30.06,4,1,15,0.00
2013-4-8,80,68,57,23,18,13,19,15,12,30.12,30.06,4,1,15,0.00
2013-4-9,85,70,54,30,21,14,34,16,11,30.18,30.00,4,1,14,0.00
2013-4-10,86,74,60,26,21,16,24,14,11,30.12,29.88,5,1,14,0.00
2013-4-11,84,73,64,35,21,16,29,14,11,29.94,29.65,3,1,18,0.00
2013-4-12,69,60,46,20,15,6,30,18,15,30.00,29.88,5,2,13,0.00
2013-4-13,74,58,42,24,17,7,45,22,13,30.06,30.00,7,2,17,0.00
2013-4-14,66,53,41,33,20,11,47,29,15,30.06,29.94,3,1,13,0.00
2013-4-15,79,66,55,43,25,16,56,25,12,30.12,29.94,4,1,13,0.00
2013-4-16,84,72,63,30,23,19,28,16,11,30.24,30.12,5,2,15,0.00
2013-4-17,88,72,62,45,26,18,53,20,11,30.24,30.06,7,1,13,0.00
2013-4-18,85,69,59,49,30,19,60,28,11,30.06,29.94,4,1,13,0.00
2013-4-19,72,58,42,46,22,4,54,26,14,30.12,29.71,5,2,13,0.00
2013-4-20,64,49,34,16,8,-2,33,19,15,30.24,30.12,6,3,15,0.00
2013-4-21,74,55,37,21,12,1,37,18,13,30.36,30.24,4,1,10,0.00
2013-4-22,75,58,39,26,16,7,42,21,13,30.30,30.12,3,1,10,0.00
2013-4-23,77,61,42,25,17,7,42,19,13,30.24,30.06,5,1,13,0.00
2013-4-24,72,62,48,42,23,14,45,24,14,30.24,30.06,4,1,12,0.00
2013-4-25,68,53,41,23,14,6,38,23,15,30.36,30.24,6,4,17,0.00
2013-4-26,78,59,40,28,15,2,39,18,13,30.36,30.24,6,2,14,0.00
2013-4-27,66,58,54,43,28,14,63,37,15,30.36,30.06,4,1,11,0.00
2013-4-28,61,58,56,46,37,15,65,48,17,30.12,29.94,5,1,16,0.00
2013-4-29,74,61,52,50,33,17,68,42,13,30.06,29.94,3,0,10,0.00
2013-4-30,81,64,46,41,26,17,60,29,12,30.06,30.00,3,1,14,0.00
2013-5-1,77,66,55,45,26,16,55,24,13,30.18,30.06,4,1,8,0.00
2013-5-2,79,64,52,36,24,16,47,24,12,30.18,30.06,4,1,8,0.00
2013-5-3,74,64,57,35,22,15,40,21,13,30.12,29.94,3,1,11,0.00
2013-5-4,63,56,52,40,31,12,62,43,16,29.94,29.88,5,2,15,0.00
2013-5-5,68,53,48,43,32,14,66,49,15,29.88,29.76,5,1,13,0.00
2013-5-6,58,50,0,40,29,13,63,45,17,29.94,29.82,5,0,8,0.00
2013-5-7,74,58,0,44,28,14,65,36,13,30.00,29.88,5,1,13,0.00
2013-5-8,78,62,49,47,28,17,66,33,13,30.06,29.94,2,0,8,0.00
2013-5-9,59,49,0,35,16,-1,52,27,11,30.12,30.06,3,0,9,0.00
2013-5-10,76,65,52,44,27,18,50,27,13,30.12,29.94,2,0,9,0.00
2013-5-11,80,65,0,45,33,19,48,32,12,30.00,29.88,3,0,18,0.00
2013-5-12,69,58,0,30,18,5,40,22,15,30.18,30.00,5,3,13,0.00
2013-5-13,72,55,39,20,13,2,35,20,14,30.24,30.12,5,2,17,0.00
2013-5-14,82,61,39,27,19,12,43,22,12,30.24,30.06,3,1,11,0.00
2013-5-15,91,72,58,28,22,15,29,16,10,30.18,30.00,3,1,11,0.00
2013-5-16,86,69,58,36,28,19,40,24,11,30.12,30.00,2,0,9,0.00
2013-5-17,85,68,0,44,30,19,45,26,11,30.12,30.00,2,0,10,0.00
2013-5-18,77,69,0,53,39,24,64,37,15,30.06,30.00,2,1,10,0.00
2013-5-19,72,66,0,56,47,40,65,50,35,30.12,29.94,4,1,13,0.00
2013-5-20,88,65,0,57,38,22,68,39,10,30.12,30.00,3,1,11,0.00
2013-5-21,78,55,0,54,31,12,61,30,10,30.06,29.88,3,1,10,0.00
2013-5-22,88,72,0,41,30,20,39,21,10,30.00,29.88,3,1,13,0.00
2013-5-23,85,69,0,52,31,16,60,26,11,30.00,29.94,6,2,22,0.00
2013-5-24,73,64,52,34,20,10,39,19,14,30.24,30.00,6,3,18,0.00
2013-5-25,81,63,46,25,18,10,39,19,12,30.36,30.18,3,1,10,0.00
2013-5-26,84,65,47,37,22,15,47,22,11,30.30,30.18,3,1,8,0.00
2013-5-27,88,68,0,36,25,17,43,22,10,30.24,30.12,3,1,9,0.00
2013-5-28,89,69,0,36,23,18,34,14,10,30.18,30.12,3,1,11,0.00
2013-5-29,89,54,0,27,23,18,23,14,10,30.24,30.12,3,1,10,0.00
2013-5-30,88,67,0,29,23,18,23,14,10,30.24,30.12,3,2,10,0.00
2013-5-31,88,48,0,31,24,19,25,14,10,30.18,30.06,3,1,9,0.00
2013-6-1,87,37,0,48,29,20,46,19,11,30.06,30.00,3,1,10,0.00
2013-6-2,83,52,0,60,44,23,63,41,11,30.00,29.88,2,0,6,0.00
2013-6-3,72,36,0,50,30,10,57,31,11,30.00,29.88,4,1,10,0.00
2013-6-4,65,21,0,41,22,3,51,29,10,30.06,30.00,3,1,9,0.00
2013-6-5,71,32,0,52,32,8,60,34,11,30.06,29.94,4,1,13,0.00
2013-6-6,86,66,0,62,41,22,67,40,11,29.94,29.76,3,0,9,0.00
2013-6-7,89,62,0,56,41,22,60,39,10,29.88,29.71,4,3,9,0.00
2013-6-8,83,37,0,60,39,21,66,39,11,30.06,29.88,3,2,8,0.00
2013-6-9,76,55,0,62,48,17,64,47,11,30.12,30.00,2,0,10,0.00
2013-6-10,74,41,0,56,40,13,62,37,11,30.06,29.94,2,0,9,0.00
2013-6-11,92,49,0,70,44,24,60,37,10,30.06,29.94,4,1,10,0.00
2013-6-12,81,50,0,57,39,16,59,34,11,30.12,30.00,2,0,7,0.00
2013-6-13,92,79,70,56,39,25,56,28,10,30.00,29.76,5,2,22,0.00
2013-6-14,86,73,0,35,26,18,34,18,11,30.00,29.88,6,3,14,0.00
2013-6-15,89,73,58,48,30,20,59,24,10,30.12,30.00,3,1,10,0.00
2013-6-16,92,75,60,49,34,22,56,27,10,30.18,30.00,2,0,10,0.00
2013-6-17,88,69,0,62,44,25,64,39,11,30.06,29.94,3,1,9,0.00
2013-6-18,83,71,0,53,42,25,55,35,14,29.94,29.88,6,1,11,0.00
2013-6-19,87,65,0,56,34,21,65,28,11,30.06,29.94,4,2,10,0.00
2013-6-20,71,38,0,48,36,8,57,39,11,30.24,30.06,3,0,7,0.00
2013-6-21,72,28,0,54,48,39,58,46,37,30.24,30.18,3,0,8,0.00
2013-6-22,68,5,0,52,49,37,60,53,39,30.24,30.12,2,0,6,0.00
2013-6-23,71,18,0,54,51,40,61,53,39,30.24,30.12,4,0,8,0.00
2013-6-24,0,0,0,54,54,54,55,55,55,30.24,30.12,3,1,11,0.00
2013-6-25,0,0,0,54,54,54,55,55,55,30.18,30.12,1,0,6,0.00